FLOCK 1C 1

导读 | 星芒AI

FLOCK 1C 1 是由美国公司 Planet Labs 运营的 Dove 系列小型地球观测卫星之一,属于 Flock 1C 卫星群。该卫星主要用于高分辨率光学成像,支持每日对全球范围进行多次成像,广泛应用于环境监测、农业管理、灾害评估等领域。FLOCK 1C 1 于 2016 年发射,具备轻量化设计和高效数据传输能力,是 Planet Labs 实现高频次、低成本地球观测任务的重要组成部分。

基本信息
目录编号:
40027
目录名称:
FLOCK 1C 1
国际标识:
2014-033T
轨道中心:
EARTH
卫星名称:
FLOCK 1C 1
卫星全名:
--
卫星状态:
已陨落 最后检测时间 2025-03-25
发射日期:
2014-06-19 UTC
国别 :
美国 (US)
星等 :
--
轨道信息
数据来源 国际轨道数据
星历时间: 2025-03-17T20:44:35+0800
轨道信息已过期273天
半长轴: 6602.67km
偏心率: 0.0008922
轨道倾角: 98.043°
近地点辐角 209.865°
升交点赤经 93.681°
平近点角 150.213°
近地点: 218.644km
远地点: 230.426km
周期: 88.990分钟
每日圈数: 16.181672
详细信息
使用方式:
暂无